Location: West Sayville
(40.7279°N, 73.0976°W)
Time: 09:31:53
(UTC+00:00)

ARGOS - Pass Details

Date: 29 October 2020
Orbit: 820 x 835 km, 98.4° (Epoch: 23 November)

Event Time Altitude Azimuth Distance (km) Brightness Sun altitude
Exits shadow 23:21:55 30° 88° (E) 1,469 3.9 -17.6°
Maximum altitude 23:22:56 32° 67° (ENE) 1,404 3.8 -17.8°
Drops below altitude 10° 23:27:41 10° 6° (N) 2,454 5.5 -18.7°
Sets 23:30:15 0° 357° (N) 3,393 6.4 -19.2°
